sat.trackr.live / text

‹ back to catalog

STARLINK-31083

NORAD 58670 · 2023-211D

PAYLOAD ACTIVE UNKNOWN

§ Identity

Operator
Country
US
Launch date
2023-12-29
Launch site
AFETR
Launch vehicle
Mass (kg)
RCS (m²)

Purposes: comms

External: N2YO · Heavens-Above · Gunter

§ Orbital elements

Epoch: 2026-09-19T18:56:04.377120Z

Period
94.27 min
Inclination
43.0051°
Eccentricity
0.0001666
Mean motion
15.27584479 rev/d
Perigee alt
481.9 km
Apogee alt
484.2 km
Semi-major
6,861.2 km
B*
4.7638e-5
RAAN
68.7601°
Arg perigee
267.7643°
Mean anomaly
92.3018°
Rev number
15,215

§ Raw data

STARLINK-310831 58670U 23211D   26262.78893955  .00001049  00000+0  47638-4 0  99922 58670  43.0051  68.7601 0001666 267.7643  92.3018 15.27584479152152

JSON: /api/v1/satellites/58670 · /tle

For live sub-satellite position, see the globe view (requires WebGL).

§ Visibility from observer

Set your observer location to see the next 7 days of passes ≥ 10°. The values pass through the URL so the page stays shareable.

No JS? Fill the form by hand. The geolocation button needs JavaScript.